Regional Weather Roundup
Issued by NWS

Home | Current Version | Previous Version | Text Only | Print | Product List | Glossary On
Versions: 1 2 3 4 5 6 7 8 9 10 11 12 13 14 15 16 17 18 19 20 21 22 23 24 25 26 27 28 29 30 31 32 33 34 35 36 37 38 39 40 41 42 43 44 45 46 47 48 49 50
376
ASHW40 PHFO 181732
RWRHI

WEATHER ROUNDUP FOR HAWAII
NATIONAL WEATHER SERVICE HONOLULU HI
700 AM HST WED JAN 18 2017

THIS IS AN AUTOMATED REPORT THAT HAS NOT BEEN QUALITY CONTROLLED.

NOTE..."FAIR" INDICATES FEW OR NO CLOUDS BELOW 12,000 FEET WITH NO
SIGNIFICANT WEATHER AND/OR OBSTRUCTIONS TO VISIBILITY.

* - THESE SITES REPORT LIMITED FIELDS

HIZ001>004-181800-
KAUAI-NIIHAU-

CITY           SKY/WX    TMP DP  RH WIND       PRES   REMARKS
LIHUE APT      CLOUDY    75  63  66 NE13      30.09R
PORT ALLEN*      N/A     73 N/A N/A NE12G17     N/A
POIPU*           N/A     73 N/A N/A NE7G13      N/A
PRINCEVILLE*   NOT AVBL
KOKOLE POINT*  NOT AVBL
MOLOAA DAIRY*    N/A     73  63  68 E6          N/A
WAIMEA HTS*    NOT AVBL
PUU OPAE*      NOT AVBL
PUU LUA*       NOT AVBL
MAKAHA RIDGE*    N/A     61  59  94 CALM        N/A
$$

HIZ005>011-181800-
OAHU-

CITY           SKY/WX    TMP DP  RH WIND       PRES   REMARKS
HONOLULU       PTCLDY    72  61  68 E9        30.07R
KALAELOA       CLEAR     66  60  81 NE3       30.08R
KANEOHE MCB    PTCLDY    74  63  68 VRB3      30.06
WHEELER FIELD  PTCLDY    67  61  80 VRB3      30.07
BELLOWS*         N/A    N/A N/A N/A E16         N/A
KAHUKU*          N/A    N/A N/A N/A NE10G18     N/A
WHEELER*       NOT AVBL
WAIANAE HARBOR NOT AVBL
DILLINGHAM*      N/A     61  55  82 MISG        N/A
KAHUKU TRN*      N/A    N/A N/A N/A W10G23      N/A
KAWAILOA*      NOT AVBL
KII*             N/A     73  63  68 E16G24      N/A
MAKUA RANGE*     N/A     82  77  83 NW6         N/A  HX  91
OAHU FOREST NW NOT AVBL
SCHOFIELD BRK*   N/A     63  59  88 N1          N/A
SCHOFIELD S*   NOT AVBL
WAIANAE VLY*   NOT AVBL
KUAOKALA*      NOT AVBL
HONOULIUULI*   NOT AVBL
MOKUOLOE IS*   NOT AVBL
PALEHUA*       NOT AVBL
WAIAWA PHB*    NOT AVBL
$$

HIZ012>013-181800-
MOLOKAI-

CITY           SKY/WX    TMP DP  RH WIND       PRES   REMARKS
MOLOKAI AIRPT  CLEAR     74  63  68 NE14G21   30.06R
KALAUPAPA      NOT AVBL
MAKAPULAPAI*     N/A     73  64  73 E20G30      N/A
MOLOKAI 1*     NOT AVBL
PUU ALII*        N/A     55  52  88 NE3G14      N/A
$$

HIZ016-181800-
KAHOOLAWE-

CITY           SKY/WX    TMP DP  RH WIND       PRES   REMARKS
KAHOOLAWE*     NOT AVBL
HAKIOAWA*        N/A     69  64  85 MISG      30.46S
HONOKANAIA*      N/A     74  64  70 NE18G36   29.97R
KANELOA*       NOT AVBL
KEALIALALO*    NOT AVBL
LUA MAKIKA*    NOT AVBL
$$

HIZ014>015-181800-
LANAI-

CITY           SKY/WX    TMP DP  RH WIND       PRES   REMARKS
LANAI CITY     FAIR      65  62  90 NE3       30.10R
LANAI 1*       NOT AVBL
$$

HIZ017>028-181800-
MAUI-

CITY           SKY/WX    TMP DP  RH WIND       PRES   REMARKS
KAHULUI        PTCLDY    60  57  89 S5        30.05R
KAPALUA-W MAUI NOT AVBL
HANA AIRPORT   NOT AVBL
HANA*            N/A     70 N/A N/A SE5G10      N/A
HALEAKALA SUMM   N/A     46   3  17 E37         N/A
MAALAEA BAY*     N/A     72 N/A N/A N16G26      N/A
HALEAKALA*     NOT AVBL
KAUPO GAP*     NOT AVBL
KULA 1*          N/A     61   8  12 N3G15       N/A
$$

HIZ023>026-181800-
BIG ISLAND OF HAWAII COAST AND LOWER SLOPES-

CITY           SKY/WX    TMP DP  RH WIND       PRES   REMARKS
KAILUA KONA    PTCLDY    70  62  76 E8        30.02R
HILO           PTCLDY    61  51  70 SW12      30.11R
HONOKAA*         N/A     64 N/A N/A VRB1        N/A
KAWAIHAE MWT*  NOT AVBL
KAWAIHAE*        N/A     72 N/A N/A NE6       30.04R
SOUTH POINT*     N/A     66 N/A N/A N17G24      N/A
UPOLU AIRPORT* NOT AVBL
KAMUELA*       NOT AVBL
HAKALAU*         N/A     45  12  26 SW5G10      N/A
KALOKO-HONOKO*   N/A     70  59  68 E3        30.02
PALI 2*          N/A     59  48  67 S15G21      N/A
KEALAKOMO*       N/A     73  57  56 N18G26      N/A
KAUPULEHU*     NOT AVBL
KAPAPALA*      NOT AVBL
LOWER KAHUKU*    N/A     55  46  71 N3G15       N/A
PUHE CS*         N/A     68  61  77 NE2         N/A
PUHO CS*         N/A     67  56  69 E3          N/A
PTA KEAMUKU*     N/A     52  36  54 CALM        N/A
WAIKOLOA*      NOT AVBL
$$

HIZ027>028-181800-
BIG ISLAND OF HAWAII INTERIOR AND SUMMMITS-

CITY           SKY/WX    TMP DP  RH WIND       PRES   REMARKS
BRADSHAW FIELD PTCLDY    57   3  11 S15G23    30.34R
MK VISITOR CEN   N/A     52 -11   7 NE21        N/A
MAUNA KEA*       N/A     34 -17  11 NE48        N/A  WCI  17
MAUNA LOA*       N/A     39 -13  10 MISG        N/A
MAUNA LOA 1*   NOT AVBL
PTA KIPUKA*      N/A     75  -4   4 E18G33      N/A
PTA RANGE 17*    N/A     79   7   6 SE26G40     N/A
PTA WEST*      NOT AVBL
NENE CABIN*      N/A     52  -8   8 NE9G17      N/A
AHUMOA*        NOT AVBL
PTA PORTABLE*  NOT AVBL
PUU MALI*        N/A     64 N/A N/A SE20G35     N/A
$$

HIC003-181800-
NORTHWEST ISLANDS-

CITY           SKY/WX    TMP DP  RH WIND       PRES   REMARKS
MIDWAY ISLAND  CLOUDY    70  64  83 NW6       29.93R
MIDWAY NOS*      N/A     68 N/A N/A MISG      29.91R
FRENCH FRIGATE NOT AVBL
$$

PHZ110>124-180-181800-
BUOY REPORTS

STATION/POSITION TIME  TEMP    WIND        PRES    WAVE   SWELL
                       AIR SEA DIR/SP/G            HT/PER HT/DIR
                 (UTC) (F)     (DEG/KT/KT) (MB)    (FT/S) (FT/D)
BUOY 51001       1710   74 76  130/ 12/ 17 1019.0
BUOY 51101       1650   74 76  120/ 12/ 16 1019.2R  10/14  10/290
BUOY 51100       NOT AVBL
BUOY 51002       1710   77 78   80/ 21/ 27 1016.3
BUOY 51003       1650   76 77   90/ 12/ 16 1016.8R   7/11   7/310
BUOY 51004       1650   71 77   70/ 19/ 25 1016.8R   8/11   5/330
BARBERS PT BUOY  NOT AVBL
WAIMEA BAY BUOY  1702      75                N/A     5/11   3/310
KAILUA BAY BUOY  1704      76                N/A     6/10   2/350
LANAI BUOY       1715      77                N/A     2/11   2/280
BARBERS PT 2     1709      77                N/A     4/11   2/290
PAUWELA MAUI     1709      76                N/A     7/12   3/320
HILO             1712      76                N/A     7/10   3/ 70
KANEOHE BAY BUOY 1706      75                N/A     5/11   2/340
HANALEI KAUAI    1652      77                N/A     7/12   3/300
KAHULUI HARBOR   1700   70 77   10/  7/  8 1017.5
HONOLULU HARBOR  1700   73 77   40/  3/  4 1018.9
KILO NALU        NOT AVBL
HILO HARBOR      1700   64 76  220/  6/  9 1019.3
MOKUOLOE         1636   74 76  100/  7/ 12 1018.6R
NAWILIWILI       1700   75      70/  9/ 12 1018.6
WHOTS BUOY       NOT AVBL
BUOY 51028       NOT AVBL
$$

......................KEY........................................
  SKY/WX - SKY CONDITIONS/PRESENT WEATHER
  TMP    - TEMPERATURE IN FAHRENHEIT
  DWPT   - DEWPOINT IN FAHRENHEIT
  RH     - RELATIVE HUMIDITY IN PERCENT
  WIND   - DIRECTION AND SPEED /MPH FOR ISLANDS...KTS FOR BUOYS/
  PRES   - MEAN SEA LEVEL PRESSURE IN INCHES OF HG
  VSB    - VISIBILITY IN MILES
  HX     - HEAT INDEX
  WCI    - WIND CHILL INDEX
  VRB    - VARIABLE WIND DIRECTION
  N/A    - NOT AVAILABLE




USA.gov is the U.S. government's official web portal to all federal, state and local government web resources and services.